User: anonymous   Login
Location: Unspecified
(0.0000°N, 0.0000°E)
Time: 15:38:08
(UTC+02:00)
Language:

ATLAS 3B CENTAUR R/B - Orbit

View from above orbital plane
View from above orbital plane
View from above satellite
View from above satellite

Ground track
Ground track

The orbit data is extracted from the following two-line orbital elements,

1 28118U 03057B   16122.20958498  .00080058  00000-0  14052-2 0  9997
2 28118  28.1294  91.6603 3322974 355.4055   2.1944  8.82444322252118
Epoch (UTC): 01 May 2016 05:01:48
Eccentricity: 0.3322974
inclination: 28.1294°
perigee height: 226 km
apogee height: 6800 km
right ascension of ascending node: 91.6603°
argument of perigee: 355.4055°
revolutions per day: 8.82444322
mean anomaly at epoch: 2.1944°
orbit number at epoch: 25211

The dashed part of the orbit path shows where the satellite is in the earth's shadow,  

DLR